Location: Lourdes
(43.1000°N, 0.0500°W)
Time: 03:58:06
(UTC+00:00)

Cosmos 1151 Rocket - Pass Details

Date: 30 November 2020
Orbit: 593 x 615 km, 82.5° (Epoch: 24 January)

Event Time Altitude Azimuth Distance (km) Brightness Sun altitude
Rises 16:52:36 0° 163° (SSE) 2,832 6.6 -5.1°
Reaches altitude 10° 16:54:58 10° 154° (SSE) 1,932 5.6 -5.4°
Maximum altitude 16:58:46 32° 91° (E) 1,034 3.8 -6.1°
Drops below altitude 10° 17:02:34 10° 28° (NNE) 1,938 5.1 -6.7°
Sets 17:04:56 0° 18° (NNE) 2,843 6.1 -7.1°
